Regional Weather Roundup
Issued by NWS

Home | Current Version | Previous Version | Graphics & Text | Print | Product List | Glossary On
Versions: 1 2 3 4 5 6 7 8 9 10 11 12 13 14 15 16 17 18 19 20 21 22 23 24 25 26 27 28 29 30 31 32 33 34 35 36 37 38 39 40 41 42 43 44 45 46 47 48 49 50
000
ASUS44 KMEG 272300
RWRTN
TENNESSEE HOURLY STATE WEATHER ROUNDUP
NATIONAL WEATHER SERVICE MEMPHIS TN
500 PM CST THU NOV 27 2014

TNZ002-004-019-021-049-052-054-088>092-280000-
WEST TENNESSEE

CITY           SKY/WX    TMP DP  RH WIND       PRES   REMARKS
MEMPHIS INTL   PTCLDY    40  27  59 NW5       30.48R
NWS MEMPHIS      N/A     40 N/A N/A MISG        N/A
JACKSON        CLOUDY    36  28  73 N7        30.48S WCI  30
DYERSBURG      CLEAR     36  18  48 NE3       30.50S
UNION CITY     CLEAR     28  25  86 CALM      30.47R
PARIS          PTCLDY    28  21  74 CALM      30.47S
LEXINGTON      CLOUDY    34  21  60 N7        30.47R WCI  28
SAVANNAH       CLOUDY    36  25  64 N6        30.48R WCI  31
$$

TNZ008-025-027-028-033-062-065-066-280000-
NORTH MIDDLE TENNESSEE

CITY           SKY/WX    TMP DP  RH WIND       PRES   REMARKS
NASHVILLE      MOCLDY    32  22  66 N12       30.46R WCI  23
CLARKSVILLE    CLOUDY    32  22  66 NW7       30.47R WCI  26
CROSSVILLE     CLOUDY    30  21  69 W7        30.35R WCI  23
$$

TNZ061-075-076-078-094-096-097-280000-
SOUTH MIDDLE TENNESSEE

CITY           SKY/WX    TMP DP  RH WIND       PRES   REMARKS
TULLAHOMA      CLOUDY    34  25  69 N7        30.39S WCI  28
WINCHESTER     CLOUDY    36  25  64 NW10      30.40R WCI  28
SHELBYVILLE    CLOUDY    36  27  69 N8        30.42S WCI  29
$$

TNZ017-018-042-046-047-280000-
NORTHEAST TENNESSEE

CITY           SKY/WX    TMP DP  RH WIND       PRES   REMARKS
TRI CITIES     FLURRIES  33  27  78 W10       30.28R WCI  25
ELIZABETHTON   LGT SNOW  30  27  86 W9        30.26R FOG     WCI  22
$$

TNZ012-013-036-069-073-074-280000-
CENTRAL EAST TENNESSEE

CITY           SKY/WX    TMP DP  RH WIND       PRES   REMARKS
KNOXVILLE      CLOUDY    35  25  66 W8        30.35R WCI  29
OAK RIDGE      CLOUDY    36  25  64 VRB5      30.37R WCI  32
GATLINBURG     CLOUDY    34  27  75 NW10      30.33R WCI  26
$$

TNZ083-085-099-280000-
SOUTHEAST TENNESSEE

CITY           SKY/WX    TMP DP  RH WIND       PRES   REMARKS
CHATTANOOGA    MOCLDY    38  24  57 NW13      30.39R WCI  30
$$

SKY/WX REPORTED AS FAIR MEANS FEW OR NO CLOUDS BELOW
12 THOUSAND FEET.




USA.gov is the U.S. government's official web portal to all federal, state and local government web resources and services.